When you browse on this site, cookies collect data to enhance your experience and personalize the content and advertising you see.
Visit our Privacy Policy to learn more. By continuing to use the site, you agree to this use of cookies and data.

Hourly Weather Fier

Today, 24 September, Thursday

Time Temperature Precipitation Wind Pressure Humidity
00:00 +22°C° 0.5 mm 3 mps 758 mmHg 71%
01:00 +23°C° 0 mm 2 mps 758 mmHg 72%
02:00 +22°C° 0.6 mm 3 mps 758 mmHg 74%
03:00 +22°C° 0.6 mm 3 mps 758 mmHg 75%
04:00 +21°C° 0.6 mm 3 mps 758 mmHg 77%
05:00 +22°C° 0.2 mm 3 mps 758 mmHg 75%
06:00 +23°C° 0.2 mm 2 mps 758 mmHg 73%
07:00 +24°C° 0 mm 2 mps 758 mmHg 70%
08:00 +25°C° 0.2 mm 2 mps 758 mmHg 64%
09:00 +26°C° 0.2 mm 2 mps 759 mmHg 58%
10:00 +28°C° 0.2 mm 2 mps 759 mmHg 52%
11:00 +28°C° 0.1 mm 3 mps 759 mmHg 51%
12:00 +28°C° 0.1 mm 3 mps 759 mmHg 51%
13:00 +28°C° 0 mm 3 mps 759 mmHg 49%
14:00 +28°C° 0 mm 3 mps 759 mmHg 50%
15:00 +28°C° 0 mm 2 mps 758 mmHg 51%
16:00 +27°C° 0 mm 2 mps 758 mmHg 51%
17:00 +26°C° 0 mm 1 mps 758 mmHg 56%
18:00 +25°C° 0 mm 1 mps 759 mmHg 61%
19:00 +24°C° 0 mm 1 mps 759 mmHg 65%
20:00 +24°C° 0 mm 1 mps 759 mmHg 66%
21:00 +23°C° 0 mm 1 mps 759 mmHg 67%
22:00 +23°C° 0 mm 1 mps 759 mmHg 68%
23:00 +23°C° 0 mm 2 mps 759 mmHg 67%

Tomorrow, 25 September, Friday

Time Temperature Precipitation Wind Pressure Humidity
00:00 +23°C° 0 mm 2 mps 759 mmHg 67%
01:00 +22°C° 0 mm 3 mps 758 mmHg 66%
02:00 +21°C° 0 mm 3 mps 758 mmHg 65%
03:00 +21°C° 0 mm 3 mps 758 mmHg 64%
04:00 +21°C° 0 mm 3 mps 757 mmHg 64%
05:00 +22°C° 0 mm 3 mps 757 mmHg 61%
06:00 +22°C° 0 mm 3 mps 757 mmHg 58%
07:00 +24°C° 0 mm 3 mps 757 mmHg 56%
08:00 +26°C° 0 mm 4 mps 757 mmHg 51%
09:00 +28°C° 0 mm 5 mps 757 mmHg 46%
10:00 +30°C° 0 mm 5 mps 757 mmHg 41%
11:00 +30°C° 0 mm 7 mps 756 mmHg 40%
12:00 +31°C° 0 mm 8 mps 755 mmHg 39%
13:00 +32°C° 0 mm 9 mps 755 mmHg 39%
14:00 +31°C° 0 mm 9 mps 754 mmHg 41%
15:00 +31°C° 0 mm 9 mps 754 mmHg 43%
16:00 +31°C° 0 mm 9 mps 753 mmHg 46%
17:00 +28°C° 0 mm 8 mps 753 mmHg 52%
18:00 +27°C° 0 mm 8 mps 753 mmHg 58%
19:00 +26°C° 0 mm 8 mps 752 mmHg 64%
20:00 +26°C° 0.1 mm 8 mps 752 mmHg 64%
21:00 +26°C° 0.1 mm 8 mps 752 mmHg 63%
22:00 +26°C° 0.1 mm 8 mps 751 mmHg 63%
23:00 +26°C° 0.4 mm 8 mps 751 mmHg 65%

Day after tomorrow, 26 September, Saturday

Time Temperature Precipitation Wind Pressure Humidity
00:00 +24°C° 0.4 mm 8 mps 751 mmHg 68%
01:00 +24°C° 0.4 mm 7 mps 750 mmHg 70%
02:00 +23°C° 1.4 mm 7 mps 750 mmHg 73%
03:00 +23°C° 1.4 mm 7 mps 749 mmHg 75%
04:00 +22°C° 1.4 mm 7 mps 749 mmHg 78%
05:00 +22°C° 0.9 mm 6 mps 749 mmHg 75%
06:00 +21°C° 0.9 mm 5 mps 749 mmHg 73%
07:00 +21°C° 0.9 mm 4 mps 748 mmHg 70%
08:00 +21°C° 0.8 mm 5 mps 749 mmHg 66%
09:00 +21°C° 0.8 mm 5 mps 749 mmHg 63%
10:00 +21°C° 0.8 mm 5 mps 749 mmHg 59%
11:00 +21°C° 0.9 mm 6 mps 749 mmHg 61%
12:00 +20°C° 0.9 mm 6 mps 749 mmHg 63%
13:00 +20°C° 0.9 mm 7 mps 748 mmHg 65%
14:00 +20°C° 1 mm 7 mps 749 mmHg 63%
15:00 +20°C° 1 mm 8 mps 749 mmHg 61%
16:00 +19°C° 1 mm 9 mps 749 mmHg 59%
17:00 +20°C° 0.6 mm 8 mps 749 mmHg 61%
18:00 +18°C° 0.6 mm 7 mps 750 mmHg 62%
19:00 +17°C° 0.6 mm 6 mps 751 mmHg 64%
20:00 +17°C° 0.4 mm 5 mps 751 mmHg 66%
21:00 +18°C° 0.4 mm 4 mps 752 mmHg 68%
22:00 +17°C° 0.4 mm 3 mps 752 mmHg 71%
23:00 +17°C° 0.3 mm 4 mps 753 mmHg 71%

27 September, Sunday

Time Temperature Precipitation Wind Pressure Humidity
00:00 +17°C° 0.3 mm 4 mps 753 mmHg 72%
01:00 +17°C° 0.3 mm 4 mps 753 mmHg 72%
02:00 +16°C° 0.3 mm 5 mps 753 mmHg 73%
03:00 +15°C° 0.3 mm 5 mps 753 mmHg 74%
04:00 +15°C° 0.3 mm 5 mps 753 mmHg 75%
05:00 +16°C° 0.5 mm 5 mps 753 mmHg 74%
06:00 +16°C° 0.5 mm 5 mps 753 mmHg 73%
07:00 +18°C° 0.5 mm 4 mps 754 mmHg 72%
08:00 +20°C° 0.3 mm 6 mps 754 mmHg 66%
09:00 +21°C° 0.3 mm 8 mps 754 mmHg 60%
10:00 +23°C° 0.3 mm 10 mps 754 mmHg 54%
11:00 +23°C° 0.5 mm 10 mps 755 mmHg 54%
12:00 +23°C° 0.5 mm 10 mps 755 mmHg 54%
13:00 +24°C° 0.5 mm 11 mps 755 mmHg 54%
14:00 +23°C° 0.2 mm 9 mps 756 mmHg 55%
15:00 +23°C° 0.2 mm 8 mps 756 mmHg 57%
16:00 +22°C° 0.2 mm 7 mps 756 mmHg 59%
17:00 +21°C° 0.3 mm 7 mps 757 mmHg 64%
18:00 +20°C° 0.3 mm 6 mps 757 mmHg 69%
19:00 +19°C° 0.3 mm 5 mps 757 mmHg 74%
20:00 +19°C° 0.1 mm 5 mps 757 mmHg 74%
21:00 +19°C° 0.1 mm 5 mps 758 mmHg 75%
22:00 +17°C° 0.1 mm 5 mps 758 mmHg 75%
23:00 +17°C° 0.2 mm 5 mps 757 mmHg 76%

28 September, Monday

Time Temperature Precipitation Wind Pressure Humidity
00:00 +17°C° 0.2 mm 5 mps 757 mmHg 77%
01:00 +17°C° 0.2 mm 6 mps 757 mmHg 78%
02:00 +17°C° 1 mm 6 mps 757 mmHg 80%
03:00 +17°C° 1 mm 6 mps 756 mmHg 82%
04:00 +17°C° 1 mm 7 mps 756 mmHg 83%
05:00 +18°C° 1.4 mm 7 mps 756 mmHg 84%
06:00 +18°C° 1.4 mm 7 mps 756 mmHg 85%
07:00 +18°C° 1.4 mm 7 mps 756 mmHg 86%
08:00 +18°C° 5.3 mm 7 mps 756 mmHg 87%
09:00 +18°C° 5.3 mm 7 mps 756 mmHg 88%
10:00 +18°C° 5.3 mm 8 mps 756 mmHg 90%
11:00 +20°C° 2.6 mm 8 mps 756 mmHg 86%
12:00 +21°C° 2.6 mm 8 mps 756 mmHg 82%
13:00 +22°C° 2.6 mm 8 mps 756 mmHg 78%
14:00 +22°C° 2.3 mm 7 mps 756 mmHg 78%
15:00 +22°C° 2.3 mm 7 mps 755 mmHg 78%
16:00 +22°C° 2.3 mm 6 mps 755 mmHg 79%
17:00 +21°C° 2.4 mm 6 mps 755 mmHg 81%
18:00 +21°C° 2.4 mm 5 mps 756 mmHg 83%
19:00 +20°C° 2.4 mm 5 mps 756 mmHg 85%
20:00 +20°C° 1.5 mm 4 mps 756 mmHg 83%
21:00 +19°C° 1.5 mm 4 mps 757 mmHg 81%
22:00 +19°C° 1.5 mm 4 mps 757 mmHg 80%
23:00 +19°C° 0.7 mm 4 mps 757 mmHg 80%

29 September, Tuesday

Time Temperature Precipitation Wind Pressure Humidity
00:00 +18°C° 0.7 mm 3 mps 757 mmHg 80%
01:00 +18°C° 0.7 mm 3 mps 758 mmHg 81%
02:00 +18°C° 0.6 mm 3 mps 758 mmHg 81%
03:00 +18°C° 0.6 mm 3 mps 758 mmHg 82%
04:00 +17°C° 0.6 mm 3 mps 758 mmHg 82%
05:00 +18°C° 0.5 mm 3 mps 759 mmHg 81%
06:00 +19°C° 0.5 mm 3 mps 759 mmHg 80%
07:00 +19°C° 0.5 mm 3 mps 760 mmHg 79%
08:00 +20°C° 0.2 mm 4 mps 760 mmHg 75%
09:00 +21°C° 0.2 mm 4 mps 760 mmHg 70%
10:00 +22°C° 0.2 mm 4 mps 760 mmHg 66%
11:00 +23°C° 0 mm 4 mps 761 mmHg 63%
12:00 +23°C° 0 mm 4 mps 761 mmHg 61%
13:00 +23°C° 0 mm 4 mps 761 mmHg 58%
14:00 +23°C° 0 mm 4 mps 761 mmHg 58%
15:00 +24°C° 0 mm 3 mps 761 mmHg 58%
16:00 +24°C° 0 mm 3 mps 761 mmHg 57%
17:00 +21°C° 0 mm 3 mps 761 mmHg 61%
18:00 +20°C° 0 mm 2 mps 761 mmHg 65%
19:00 +20°C° 0 mm 1 mps 761 mmHg 69%
20:00 +20°C° 0 mm 1 mps 761 mmHg 70%
21:00 +20°C° 0 mm 1 mps 761 mmHg 71%
22:00 +19°C° 0 mm 1 mps 761 mmHg 73%
23:00 +19°C° 0 mm 1 mps 761 mmHg 74%
Show more